NORTHERN QUEENS  -  Heat Advisory Heat Advisory     Rip Current Statement Rip Current Statement        SOUTHERN QUEENS  -  Heat Advisory Heat Advisory     Rip Current Statement Rip Current Statement        NORTHEAST SUFFOLK  -  Rip Current Statement Rip Current Statement        NORTHERN NASSAU  -  Rip Current Statement Rip Current Statement        SOUTHEAST SUFFOLK  -  Rip Current Statement Rip Current Statement        SOUTHERN NASSAU  -  Rip Current Statement Rip Current Statement        SOUTHWEST SUFFOLK  -  Rip Current Statement Rip Current Statement      

Active alerts

Northern Queens
  Details for Northern Queens Heat Advisory  +1 additional alert
Southern Queens
  Details for Southern Queens Heat Advisory  +1 additional alert
Northern Nassau
  Details for Northern Nassau Rip Current Statement
Southern Nassau
  Details for Southern Nassau Rip Current Statement
Southwest Suffolk
  Details for Southwest Suffolk Rip Current Statement
Northeast Suffolk
  Details for Northeast Suffolk Rip Current Statement
Southeast Suffolk
  Details for Southeast Suffolk Rip Current Statement


WXM80 ListenWXM80 Stop

You find our weather info also at:

UK Metoffice

WeatherCloud

Weather Underground

Northeastern Weather Network

AWEKAS

Citizen Weather Observer Program (CWOP)

HAMweather, WeatherForYou, PWS Weather


Weather Underground History page Text

Daily Summary for January 2, 2018 Units:  Metric    English   Both
« Previous Day
Next Day »
Daily Weekly Monthly Yearly Custom
  High: Low: Average:
Temperature: -2.9 °C -9.2 °C -6.7 °C
Dew Point: -10.8 °C -14.6 °C -12.7 °C
Humidity: 69 % 53 % 63 %
Wind Speed: 20.9 km/h 0 km/h 8.4 km/h
Wind Gust: 35.4 km/h - -
Wind:- - WSW
Pressure: 1029.7 hPa 1025.6 hPa -
Precipitation: 0 mm    
Historical Graphs
 
 
Tabular Data for January 2, 2018
Time Temperature Dew Point Pressure Wind Wind Speed Wind Gust Humidity Rainfall Rate (Hourly)
00:01 -8.1 °C -14.1 °C 1026.6 hPa NW 11.7 km/h 24.1 km/h 62 % 0 mm
00:05 -8.1 °C -13.9 °C 1026.6 hPa West 10.5 km/h 18.5 km/h 63 % 0 mm
00:10 -8.1 °C -13.9 °C 1026.6 hPa WNW 11.7 km/h 27.8 km/h 63 % 0 mm
00:12 -8.2 °C -14 °C 1026.6 hPa WSW 10.3 km/h 27.8 km/h 63 % 0 mm
00:17 -8.2 °C -14 °C 1026.6 hPa WSW 11.4 km/h 18.5 km/h 63 % 0 mm
00:18 -8.2 °C -14 °C 1026.6 hPa WSW 7.7 km/h 24.1 km/h 63 % 0 mm
00:23 -8.2 °C -13.8 °C 1026.6 hPa WSW 12.7 km/h 16.7 km/h 64 % 0 mm
00:28 -8.2 °C -13.8 °C 1026.6 hPa WSW 8.9 km/h 24.1 km/h 64 % 0 mm
00:30 -8.2 °C -13.8 °C 1026.6 hPa NW 15.4 km/h 24.1 km/h 64 % 0 mm
00:32 -8.3 °C -13.9 °C 1026.6 hPa West 16.3 km/h 29 km/h 64 % 0 mm
00:41 -8.3 °C -13.9 °C 1026.3 hPa West 12.9 km/h 22.2 km/h 64 % 0 mm
00:42 -8.3 °C -13.9 °C 1026.3 hPa NNW 2.7 km/h 12.9 km/h 64 % 0 mm
00:48 -8.3 °C -13.9 °C 1026.3 hPa WNW 11.7 km/h 19.3 km/h 64 % 0 mm
00:53 -8.3 °C -13.7 °C 1026.3 hPa WSW 17.2 km/h 31.5 km/h 65 % 0 mm
00:58 -8.3 °C -13.9 °C 1026.6 hPa WSW 8.5 km/h 25.7 km/h 64 % 0 mm
01:03 -8.3 °C -13.9 °C 1026.6 hPa West 7.6 km/h 33.8 km/h 64 % 0 mm
01:05 -8.3 °C -13.9 °C 1026.6 hPa WSW 7.9 km/h 24.1 km/h 64 % 0 mm
01:09 -8.3 °C -13.7 °C 1026.6 hPa WSW 9.7 km/h 16.7 km/h 65 % 0 mm
01:11 -8.3 °C -13.7 °C 1026.3 hPa WSW 12.2 km/h 22.2 km/h 65 % 0 mm
01:16 -8.3 °C -13.7 °C 1026.6 hPa NW 9.3 km/h 20.4 km/h 65 % 0 mm
01:17 -8.4 °C -13.8 °C 1026.6 hPa West 10.8 km/h 16.7 km/h 65 % 0 mm
01:22 -8.4 °C -13.8 °C 1026.6 hPa WNW 20.9 km/h 31.5 km/h 65 % 0 mm
01:24 -8.4 °C -13.8 °C 1026.6 hPa WNW 12.4 km/h 29.6 km/h 65 % 0 mm
01:25 -8.4 °C -13.8 °C 1026.6 hPa WSW 11.7 km/h 18.5 km/h 65 % 0 mm
01:30 -8.4 °C -13.8 °C 1026.6 hPa WSW 16.3 km/h 33.3 km/h 65 % 0 mm
01:35 -8.4 °C -13.8 °C 1026.6 hPa WNW 15.3 km/h 35.4 km/h 65 % 0 mm
01:36 -8.4 °C -13.8 °C 1026.6 hPa SW 13.4 km/h 35.2 km/h 65 % 0 mm
01:41 -8.4 °C -13.8 °C 1026.6 hPa WSW 13.8 km/h 22.5 km/h 65 % 0 mm
01:49 -8.5 °C -13.9 °C 1026.6 hPa WSW 9.2 km/h 16.7 km/h 65 % 0 mm
01:54 -8.5 °C -13.9 °C 1026.6 hPa WSW 8 km/h 11.3 km/h 65 % 0 mm
01:58 -8.5 °C -13.9 °C 1026.6 hPa WNW 10.6 km/h 16.7 km/h 65 % 0 mm
02:00 -8.5 °C -13.9 °C 1026.6 hPa NW 12.1 km/h 19.3 km/h 65 % 0 mm
02:05 -8.6 °C -13.8 °C 1026.6 hPa NW 11.4 km/h 18.5 km/h 66 % 0 mm
02:10 -8.6 °C -13.9 °C 1027 hPa NNW 8.4 km/h 18.5 km/h 65 % 0 mm
02:11 -8.6 °C -13.9 °C 1026.6 hPa SSW 12.9 km/h 24.1 km/h 65 % 0 mm
02:16 -8.6 °C -13.8 °C 1027 hPa SW 10.1 km/h 24.1 km/h 66 % 0 mm
02:17 -8.6 °C -13.8 °C 1027 hPa WNW 12.1 km/h 12.9 km/h 66 % 0 mm
02:22 -8.6 °C -13.8 °C 1027 hPa WSW 15.9 km/h 33.3 km/h 66 % 0 mm
02:25 -8.6 °C -13.8 °C 1027 hPa South 9.2 km/h 18.5 km/h 66 % 0 mm
02:29 -8.6 °C -13.8 °C 1027 hPa West 11.9 km/h 24.1 km/h 66 % 0 mm
02:34 -8.5 °C -13.6 °C 1027 hPa WSW 14.3 km/h 25.9 km/h 67 % 0 mm
02:38 -8.5 °C -13.7 °C 1027 hPa WNW 16.1 km/h 24.1 km/h 66 % 0 mm
02:43 -8.5 °C -13.7 °C 1027 hPa WNW 11.4 km/h 31.5 km/h 66 % 0 mm
02:44 -8.5 °C -13.7 °C 1027 hPa WNW 13.7 km/h 24.1 km/h 66 % 0 mm
02:49 -8.5 °C -13.7 °C 1027 hPa WNW 16.6 km/h 35.2 km/h 66 % 0 mm
02:50 -8.5 °C -13.7 °C 1027 hPa WSW 14.3 km/h 29.6 km/h 66 % 0 mm
02:55 -8.5 °C -13.7 °C 1027.3 hPa West 7.2 km/h 18.5 km/h 66 % 0 mm
02:57 -8.5 °C -13.7 °C 1027 hPa WSW 12.4 km/h 27.8 km/h 66 % 0 mm
03:02 -8.5 °C -13.7 °C 1027.3 hPa WNW 13.8 km/h 29.6 km/h 66 % 0 mm
03:04 -8.5 °C -13.7 °C 1027.3 hPa NW 17.9 km/h 35.2 km/h 66 % 0 mm
03:09 -8.5 °C -13.9 °C 1027.3 hPa SSE 5.6 km/h 18.5 km/h 65 % 0 mm
03:14 -8.6 °C -14.2 °C 1027.3 hPa NW 7.4 km/h 18.5 km/h 64 % 0 mm
03:16 -8.6 °C -13.9 °C 1027.3 hPa WSW 6 km/h 16.7 km/h 65 % 0 mm
03:20 -8.6 °C -13.8 °C 1027.3 hPa NNW 9.8 km/h 20.4 km/h 66 % 0 mm
03:25 -8.6 °C -14 °C 1027.3 hPa West 5.6 km/h 18.5 km/h 65 % 0 mm
03:26 -8.6 °C -14 °C 1027.3 hPa West 9.5 km/h 18.5 km/h 65 % 0 mm
03:28 -8.6 °C -13.8 °C 1027.3 hPa West 16.4 km/h 31.5 km/h 66 % 0 mm
03:33 -8.7 °C -14.3 °C 1027.3 hPa NW 15.8 km/h 27.8 km/h 64 % 0 mm
03:34 -8.7 °C -14.3 °C 1027.3 hPa NW 13 km/h 27.8 km/h 64 % 0 mm
03:39 -8.7 °C -14.3 °C 1027.3 hPa WSW 9.3 km/h 18.5 km/h 64 % 0 mm
03:42 -8.7 °C -14.1 °C 1027.3 hPa WSW 11.7 km/h 31.5 km/h 65 % 0 mm
03:43 -8.7 °C -14.1 °C 1027.3 hPa NW 10.3 km/h 31.5 km/h 65 % 0 mm
03:48 -8.7 °C -14.1 °C 1027.3 hPa WNW 9 km/h 18.5 km/h 65 % 0 mm
03:53 -8.7 °C -14.1 °C 1027.3 hPa WNW 11.4 km/h 19.3 km/h 65 % 0 mm
03:58 -8.8 °C -14.4 °C 1027 hPa WNW 9.8 km/h 20.4 km/h 64 % 0 mm
04:06 -8.8 °C -14.2 °C 1027.3 hPa West 10.3 km/h 22.2 km/h 65 % 0 mm
04:08 -8.7 °C -14.1 °C 1027 hPa West 9.3 km/h 25.9 km/h 65 % 0 mm
04:13 -8.7 °C -14.1 °C 1027 hPa NW 12.7 km/h 22.2 km/h 65 % 0 mm
04:16 -8.7 °C -14.1 °C 1027 hPa WSW 19 km/h 31.5 km/h 65 % 0 mm
04:19 -8.7 °C -14.1 °C 1027 hPa SW 11.1 km/h 24.1 km/h 65 % 0 mm
04:22 -8.7 °C -14.1 °C 1027.3 hPa NNW 9.7 km/h 22.2 km/h 65 % 0 mm
04:27 -8.7 °C -14.3 °C 1027 hPa West 16.4 km/h 25.9 km/h 64 % 0 mm
04:28 -8.7 °C -14.3 °C 1027 hPa WSW 12.4 km/h 29.6 km/h 64 % 0 mm
04:33 -8.7 °C -14.5 °C 1027.3 hPa WNW 14.8 km/h 25.9 km/h 63 % 0 mm
04:36 -8.7 °C -14.3 °C 1027.3 hPa NW 9.7 km/h 19.3 km/h 64 % 0 mm
04:42 -8.7 °C -14.5 °C 1027.3 hPa WNW 14.5 km/h 18.5 km/h 63 % 0 mm
04:44 -8.7 °C -14.3 °C 1027.3 hPa WNW 10 km/h 25.9 km/h 64 % 0 mm
04:45 -8.7 °C -14.3 °C 1027.3 hPa NW 14.3 km/h 24.1 km/h 64 % 0 mm
04:49 -8.8 °C -14.6 °C 1027.3 hPa NW 15 km/h 27.8 km/h 63 % 0 mm
04:50 -8.8 °C -14.6 °C 1027.3 hPa WNW 14.8 km/h 27.8 km/h 63 % 0 mm
04:55 -8.8 °C -14.6 °C 1027.3 hPa SW 13 km/h 20.4 km/h 63 % 0 mm
04:58 -8.8 °C -14.4 °C 1027.3 hPa West 6.8 km/h 22.2 km/h 64 % 0 mm
05:03 -8.8 °C -14.4 °C 1027.7 hPa West 12.7 km/h 24.1 km/h 64 % 0 mm
05:04 -8.8 °C -14.4 °C 1027.7 hPa NW 7.7 km/h 24.1 km/h 64 % 0 mm
05:09 -8.8 °C -14.2 °C 1027.7 hPa NW 10.3 km/h 20.4 km/h 65 % 0 mm
05:12 -8.8 °C -14.4 °C 1027.7 hPa West 9.7 km/h 18.5 km/h 64 % 0 mm
05:17 -8.8 °C -14.2 °C 1027.7 hPa NNW 13.2 km/h 20.4 km/h 65 % 0 mm
05:18 -8.8 °C -14.2 °C 1027.7 hPa NNW 14.5 km/h 27.8 km/h 65 % 0 mm
05:23 -8.9 °C -14.3 °C 1027.7 hPa WSW 8.7 km/h 20.4 km/h 65 % 0 mm
05:24 -8.9 °C -14.3 °C 1027.7 hPa WSW 9.2 km/h 20.4 km/h 65 % 0 mm
05:29 -8.9 °C -14.3 °C 1027.7 hPa SSW 12.2 km/h 20.4 km/h 65 % 0 mm
05:34 -9 °C -14.4 °C 1028 hPa WSW 15.9 km/h 29.6 km/h 65 % 0 mm
05:35 -9 °C -14.4 °C 1028 hPa WSW 15.4 km/h 29.6 km/h 65 % 0 mm
05:40 -9.1 °C -14.4 °C 1028 hPa WNW 8.4 km/h 14.8 km/h 65 % 0 mm
05:42 -9.1 °C -14.4 °C 1028 hPa NW 8.4 km/h 16.7 km/h 65 % 0 mm
05:47 -9.1 °C -14.3 °C 1028 hPa WSW 4.8 km/h 16.7 km/h 66 % 0 mm
05:48 -9.1 °C -14.3 °C 1028 hPa West 11.9 km/h 22.5 km/h 66 % 0 mm
05:53 -9.1 °C -14.5 °C 1028.3 hPa WSW 11.9 km/h 22.5 km/h 65 % 0 mm
05:56 -9.2 °C -14.6 °C 1028 hPa NW 2.7 km/h 11.1 km/h 65 % 0 mm
06:01 -9.2 °C -14.6 °C 1028.3 hPa WNW 8.7 km/h 18.5 km/h 65 % 0 mm
06:05 -9.2 °C -14.2 °C 1028.3 hPa WSW 6.1 km/h 18.5 km/h 67 % 0 mm
06:10 -9.2 °C -14.2 °C 1028.3 hPa WNW 12.1 km/h 25.9 km/h 67 % 0 mm
06:15 -9.2 °C -14.2 °C 1028.3 hPa NW 6.6 km/h 9.3 km/h 67 % 0 mm
06:20 -9.2 °C -14.4 °C 1028.3 hPa WSW 9.5 km/h 27.8 km/h 66 % 0 mm
06:25 -9.2 °C -14.4 °C 1028.3 hPa NW 10.8 km/h 29.6 km/h 66 % 0 mm
06:27 -9.2 °C -14.4 °C 1028.7 hPa West 8.7 km/h 13 km/h 66 % 0 mm
06:33 -9.2 °C -14.4 °C 1028.7 hPa West 12.1 km/h 20.9 km/h 66 % 0 mm
06:37 -9.2 °C -14.4 °C 1028.7 hPa NW 12.1 km/h 20.4 km/h 66 % 0 mm
06:39 -9.2 °C -14.4 °C 1028.7 hPa WNW 9.8 km/h 22.2 km/h 66 % 0 mm
06:44 -9.2 °C -14.4 °C 1028.7 hPa West 13.5 km/h 24.1 km/h 66 % 0 mm
06:49 -9.2 °C -14.3 °C 1028.7 hPa NW 9.2 km/h 16.1 km/h 66 % 0 mm
06:54 -9.2 °C -14.3 °C 1028.7 hPa West 9.7 km/h 22.2 km/h 66 % 0 mm
06:59 -9.1 °C -14.3 °C 1029 hPa NW 14.3 km/h 25.9 km/h 66 % 0 mm
07:00 -9.1 °C -14.3 °C 1029 hPa NW 13.5 km/h 20.4 km/h 66 % 0 mm
07:02 -9.1 °C -14.3 °C 1028.7 hPa NW 7.2 km/h 18.5 km/h 66 % 0 mm
07:06 -9.1 °C -14.1 °C 1028.7 hPa West 12.4 km/h 20.4 km/h 67 % 0 mm
07:11 -9.1 °C -14.3 °C 1028.7 hPa West 4.3 km/h 31.5 km/h 66 % 0 mm
07:16 -9.2 °C -14.3 °C 1028.7 hPa WNW 10.5 km/h 17.7 km/h 66 % 0 mm
07:22 -9.2 °C -14.2 °C 1029 hPa West 8.9 km/h 19.3 km/h 67 % 0 mm
07:26 -9.2 °C -14.2 °C 1029 hPa WNW 5.1 km/h 11.3 km/h 67 % 0 mm
07:31 -9.2 °C -14.2 °C 1029 hPa WSW 11.6 km/h 22.5 km/h 67 % 0 mm
07:37 -9.2 °C -14 °C 1029 hPa WSW 10.5 km/h 16.7 km/h 68 % 0 mm
07:38 -9.2 °C -14 °C 1029.3 hPa SW 6.6 km/h 16.7 km/h 68 % 0 mm
07:39 -9.2 °C -14 °C 1029.3 hPa WNW 8.2 km/h 14.8 km/h 68 % 0 mm
07:43 -9.2 °C -14 °C 1029.3 hPa West 3.5 km/h 11.3 km/h 68 % 0 mm
07:47 -9.1 °C -13.9 °C 1029 hPa WSW 7.2 km/h 18.5 km/h 68 % 0 mm
07:52 -9.1 °C -13.9 °C 1029 hPa West 4.5 km/h 8 km/h 68 % 0 mm
07:57 -9.1 °C -13.9 °C 1029 hPa SW 8.9 km/h 12.9 km/h 68 % 0 mm
07:59 -9.1 °C -13.8 °C 1029 hPa West 12.2 km/h 22.5 km/h 69 % 0 mm
08:04 -9.1 °C -13.9 °C 1029.3 hPa NW 10.1 km/h 22.2 km/h 68 % 0 mm
08:07 -9.1 °C -13.7 °C 1029.3 hPa West 10.5 km/h 18.5 km/h 69 % 0 mm
08:10 -9.1 °C -13.7 °C 1029.3 hPa WNW 9.3 km/h 14.8 km/h 69 % 0 mm
08:15 -9 °C -13.7 °C 1029.3 hPa West 11.3 km/h 18.5 km/h 69 % 0 mm
08:20 -9 °C -13.8 °C 1029.3 hPa West 8.9 km/h 12.9 km/h 68 % 0 mm
08:22 -9 °C -13.8 °C 1029.3 hPa WSW 13.5 km/h 19.3 km/h 68 % 0 mm
08:27 -8.9 °C -13.8 °C 1029.3 hPa West 7.6 km/h 14.8 km/h 68 % 0 mm
08:32 -8.9 °C -13.7 °C 1029.3 hPa West 11.9 km/h 14.8 km/h 68 % 0 mm
08:33 -8.8 °C -13.7 °C 1029.3 hPa WSW 11.3 km/h 25.7 km/h 68 % 0 mm
08:37 -8.8 °C -13.6 °C 1029.3 hPa West 9.7 km/h 17.7 km/h 68 % 0 mm
08:40 -8.8 °C -13.4 °C 1029.3 hPa SW 6.3 km/h 12.9 km/h 69 % 0 mm
08:45 -8.7 °C -13.6 °C 1029.3 hPa WNW 9.7 km/h 19.3 km/h 68 % 0 mm
08:50 -8.7 °C -13.5 °C 1029.3 hPa WSW 11.9 km/h 18.5 km/h 68 % 0 mm
08:55 -8.6 °C -13.4 °C 1029.3 hPa NW 7.7 km/h 16.1 km/h 68 % 0 mm
08:58 -8.6 °C -13.4 °C 1029.3 hPa NW 10 km/h 18.5 km/h 68 % 0 mm
09:03 -8.5 °C -13.3 °C 1029.3 hPa WSW 6 km/h 16.7 km/h 68 % 0 mm
09:06 -8.5 °C -13.3 °C 1029.3 hPa West 9.7 km/h 19.3 km/h 68 % 0 mm
09:08 -8.4 °C -13.3 °C 1029.7 hPa WSW 6.8 km/h 13 km/h 68 % 0 mm
09:12 -8.4 °C -13.2 °C 1029.7 hPa WNW 12.6 km/h 18.5 km/h 68 % 0 mm
09:18 -8.3 °C -13.2 °C 1029.7 hPa WNW 9.2 km/h 16.7 km/h 68 % 0 mm
09:23 -8.2 °C -13.1 °C 1029.3 hPa West 8 km/h 14.8 km/h 68 % 0 mm
09:25 -8.2 °C -13.1 °C 1029.3 hPa SW 4.3 km/h 9.3 km/h 68 % 0 mm
09:30 -8.1 °C -12.9 °C 1029.7 hPa WNW 13.7 km/h 18.5 km/h 68 % 0 mm
09:32 -8.1 °C -12.9 °C 1029.7 hPa WSW 9.7 km/h 27.4 km/h 68 % 0 mm
09:34 -8 °C -12.9 °C 1029.7 hPa WNW 12.4 km/h 27.8 km/h 68 % 0 mm
09:39 -7.9 °C -12.9 °C 1029.7 hPa WSW 4.3 km/h 18.5 km/h 67 % 0 mm
09:42 -7.8 °C -12.8 °C 1029.7 hPa West 10.1 km/h 18.5 km/h 67 % 0 mm
09:47 -7.7 °C -12.7 °C 1029.7 hPa West 4.2 km/h 7.4 km/h 67 % 0 mm
09:50 -7.6 °C -12.7 °C 1029.7 hPa NW 11.6 km/h 16.7 km/h 67 % 0 mm
09:51 -7.6 °C -12.7 °C 1029.7 hPa WNW 10.1 km/h 17.7 km/h 67 % 0 mm
09:56 -7.4 °C -12.7 °C 1029.7 hPa WSW 13.7 km/h 19.3 km/h 66 % 0 mm
10:01 -7.4 °C -12.7 °C 1029.7 hPa WSW 5.6 km/h 13 km/h 66 % 0 mm
10:06 -7.2 °C -12.7 °C 1029.7 hPa SW 13 km/h 18.5 km/h 65 % 0 mm
10:11 -7.1 °C -12.6 °C 1029.7 hPa WSW 8.9 km/h 22.2 km/h 65 % 0 mm
10:12 -7.1 °C -12.6 °C 1029.7 hPa WNW 6.6 km/h 22.2 km/h 65 % 0 mm
10:15 -7 °C -12.5 °C 1029.7 hPa WSW 4 km/h 7.4 km/h 65 % 0 mm
10:20 -6.8 °C -12.3 °C 1029.3 hPa SW 5.6 km/h 14.8 km/h 65 % 0 mm
10:25 -6.7 °C -12.2 °C 1029.3 hPa WNW 1.3 km/h 14.8 km/h 65 % 0 mm
10:28 -6.6 °C -12.1 °C 1029.7 hPa WSW 8.5 km/h 22.5 km/h 65 % 0 mm
10:33 -6.5 °C -12.4 °C 1029.3 hPa SW 8.9 km/h 22.5 km/h 63 % 0 mm
10:35 -6.4 °C -12.3 °C 1029.3 hPa NW 6.3 km/h 16.7 km/h 63 % 0 mm
10:40 -6.4 °C -12.5 °C 1029.3 hPa SSW 8.5 km/h 14.5 km/h 62 % 0 mm
10:41 -6.4 °C -12.6 °C 1029.3 hPa West 8.9 km/h 14.8 km/h 62 % 0 mm
10:46 -6.4 °C -12.3 °C 1029.3 hPa WSW 7.2 km/h 11.3 km/h 63 % 0 mm
10:49 -6.3 °C -12.4 °C 1029 hPa SSW 12.9 km/h 18.5 km/h 62 % 0 mm
10:54 -6.3 °C -12.4 °C 1029 hPa WSW 12.6 km/h 18.5 km/h 62 % 0 mm
10:55 -6.4 °C -12.5 °C 1029 hPa WSW 13.4 km/h 18.5 km/h 62 % 0 mm
11:02 -6.4 °C -12.1 °C 1029 hPa West 7.4 km/h 16.7 km/h 64 % 0 mm
11:07 -6.3 °C -12.2 °C 1028.7 hPa WNW 9.5 km/h 13 km/h 63 % 0 mm
11:10 -6.3 °C -12.2 °C 1029 hPa NW 9 km/h 13 km/h 63 % 0 mm
11:11 -6.3 °C -12.2 °C 1028.7 hPa West 7.9 km/h 13 km/h 63 % 0 mm
11:16 -6.3 °C -12.2 °C 1028.7 hPa WNW 5 km/h 7.4 km/h 63 % 0 mm
11:19 -6.3 °C -12.2 °C 1028.7 hPa WNW 7.1 km/h 18.5 km/h 63 % 0 mm
11:26 -6.3 °C -12.2 °C 1028.7 hPa WNW 6.8 km/h 14.8 km/h 63 % 0 mm
11:31 -6.3 °C -12.2 °C 1028.3 hPa WNW 5.8 km/h 16.7 km/h 63 % 0 mm
11:36 -6.3 °C -12.2 °C 1028.3 hPa West 13 km/h 25.9 km/h 63 % 0 mm
11:41 -6.3 °C -12.2 °C 1028.3 hPa WNW 9.8 km/h 13 km/h 63 % 0 mm
11:46 -6.3 °C -12.2 °C 1028.3 hPa WNW 12.7 km/h 27.8 km/h 63 % 0 mm
11:50 -6.3 °C -12.4 °C 1028 hPa SW 7.6 km/h 18.5 km/h 62 % 0 mm
11:55 -6.3 °C -12.2 °C 1028 hPa West 9 km/h 16.1 km/h 63 % 0 mm
11:57 -6.3 °C -12.2 °C 1028 hPa WSW 9 km/h 16.7 km/h 63 % 0 mm
12:02 -6.3 °C -12.2 °C 1028 hPa WNW 8.5 km/h 14.8 km/h 63 % 0 mm
12:07 -6.2 °C -12.1 °C 1027.7 hPa WSW 7.7 km/h 14.8 km/h 63 % 0 mm
12:09 -6.2 °C -12.1 °C 1027.7 hPa NW 14.2 km/h 18.5 km/h 63 % 0 mm
12:14 -6 °C -12.1 °C 1027.7 hPa SW 9.7 km/h 20.4 km/h 62 % 0 mm
12:19 -5.8 °C -11.9 °C 1027.7 hPa WNW 9.7 km/h 11.1 km/h 62 % 0 mm
12:22 -5.8 °C -11.7 °C 1027.7 hPa West 6.8 km/h 13 km/h 63 % 0 mm
12:28 -5.5 °C -11.4 °C 1027.7 hPa West 8.4 km/h 13 km/h 63 % 0 mm
12:33 -5.4 °C -11.6 °C 1027.7 hPa NW 12.6 km/h 18.5 km/h 62 % 0 mm
12:34 -5.3 °C -11.4 °C 1027.7 hPa West 9.3 km/h 18.5 km/h 62 % 0 mm
12:36 -5.2 °C -11.6 °C 1027.7 hPa West 4.2 km/h 14.8 km/h 61 % 0 mm
12:41 -5 °C -11.4 °C 1027.7 hPa WSW 13.2 km/h 24.1 km/h 61 % 0 mm
12:47 -4.8 °C -11.4 °C 1027.3 hPa WNW 7.7 km/h 19.3 km/h 60 % 0 mm
12:52 -4.7 °C -11.5 °C 1027.3 hPa West 10.9 km/h 16.7 km/h 59 % 0 mm
12:54 -4.7 °C -11.5 °C 1027.3 hPa NW 7.7 km/h 13 km/h 59 % 0 mm
12:55 -4.7 °C -11.5 °C 1027 hPa West 8.7 km/h 14.8 km/h 59 % 0 mm
13:00 -4.6 °C -11.4 °C 1027 hPa WNW 5.3 km/h 14.8 km/h 59 % 0 mm
13:02 -4.6 °C -11.4 °C 1027 hPa NW 9.5 km/h 20.9 km/h 59 % 0 mm
13:06 -4.5 °C -11.3 °C 1027 hPa West 15.8 km/h 20.4 km/h 59 % 0 mm
13:11 -4.4 °C -11.4 °C 1027 hPa SW 5.1 km/h 8 km/h 58 % 0 mm
13:13 -4.3 °C -11.4 °C 1027 hPa WSW 13.5 km/h 20.4 km/h 58 % 0 mm
13:23 -4.1 °C -11.2 °C 1027 hPa West 11.3 km/h 18.5 km/h 58 % 0 mm
13:26 -4 °C -11.3 °C 1027 hPa WNW 8.2 km/h 11.1 km/h 57 % 0 mm
13:31 -3.8 °C -11.1 °C 1026.6 hPa West 12.6 km/h 20.4 km/h 57 % 0 mm
13:33 -3.8 °C -11.1 °C 1026.6 hPa NW 11.1 km/h 19.3 km/h 57 % 0 mm
13:34 -3.7 °C -11 °C 1026.6 hPa NW 10 km/h 18.5 km/h 57 % 0 mm
13:39 -3.6 °C -10.8 °C 1026.6 hPa West 10.8 km/h 18.5 km/h 57 % 0 mm
13:40 -3.6 °C -11.1 °C 1026.6 hPa WNW 9.3 km/h 16.7 km/h 56 % 0 mm
13:45 -3.4 °C -11.2 °C 1026.3 hPa WNW 4.7 km/h 9.7 km/h 55 % 0 mm
13:46 -3.4 °C -10.9 °C 1026.6 hPa WNW 13.7 km/h 16.7 km/h 56 % 0 mm
13:52 -3.2 °C -10.8 °C 1026.6 hPa WNW 11.1 km/h 18.5 km/h 56 % 0 mm
13:53 -3.2 °C -11 °C 1026.6 hPa WNW 3.4 km/h 5.6 km/h 55 % 0 mm
13:58 -3.1 °C -10.9 °C 1026.6 hPa WNW 5.3 km/h 18.5 km/h 55 % 0 mm
14:00 -3.1 °C -10.9 °C 1026.6 hPa WSW 9.2 km/h 18.5 km/h 55 % 0 mm
14:05 -3.1 °C -10.8 °C 1026.6 hPa West 10.1 km/h 14.8 km/h 55 % 0 mm
14:10 -3 °C -11 °C 1026.6 hPa WSW 8.2 km/h 14.8 km/h 54 % 0 mm
14:12 -2.9 °C -10.9 °C 1026.6 hPa West 8.2 km/h 13 km/h 54 % 0 mm
14:17 -2.9 °C -11.2 °C 1026.6 hPa WNW 10.9 km/h 18.5 km/h 53 % 0 mm
14:22 -2.9 °C -10.9 °C 1026.6 hPa WNW 8.7 km/h 14.8 km/h 54 % 0 mm
14:28 -2.9 °C -10.9 °C 1026.3 hPa WSW 9 km/h 9 km/h 54 % 0 mm
14:33 -3 °C -11 °C 1026.3 hPa SW 5.3 km/h 14.8 km/h 54 % 0 mm
14:34 -3 °C -11.3 °C 1026.3 hPa WNW 6.4 km/h 13 km/h 53 % 0 mm
14:35 -3 °C -11 °C 1026.3 hPa WNW 7.2 km/h 13 km/h 54 % 0 mm
14:39 -3 °C -11 °C 1026.6 hPa West 8.4 km/h 14.5 km/h 54 % 0 mm
14:46 -3.1 °C -11.1 °C 1026.3 hPa SW 8.7 km/h 18.5 km/h 54 % 0 mm
14:51 -3.1 °C -10.8 °C 1026.3 hPa SW 9.2 km/h 18.5 km/h 55 % 0 mm
14:58 -3.2 °C -10.9 °C 1026.3 hPa WSW 7.4 km/h 16.7 km/h 55 % 0 mm
15:03 -3.2 °C -11 °C 1026.3 hPa West 7.4 km/h 11.3 km/h 55 % 0 mm
15:08 -3.3 °C -11.1 °C 1026.3 hPa SW 4.7 km/h 13 km/h 55 % 0 mm
15:14 -3.3 °C -11.1 °C 1026.3 hPa SW 3.7 km/h 9.3 km/h 55 % 0 mm
15:19 -3.3 °C -11.1 °C 1026.3 hPa SW 9.3 km/h 18.5 km/h 55 % 0 mm
15:20 -3.3 °C -11.1 °C 1026.3 hPa WSW 4.8 km/h 14.8 km/h 55 % 0 mm
15:25 -3.4 °C -11.2 °C 1026.3 hPa SSW 8.2 km/h 12.9 km/h 55 % 0 mm
15:26 -3.4 °C -11.2 °C 1026.3 hPa WSW 8.4 km/h 14.8 km/h 55 % 0 mm
15:30 -3.5 °C -11.3 °C 1026.3 hPa SW 6.9 km/h 16.7 km/h 55 % 0 mm
15:34 -3.6 °C -11.3 °C 1026.3 hPa SW 6.8 km/h 13 km/h 55 % 0 mm
15:39 -3.6 °C -11.3 °C 1026.3 hPa WSW 4.8 km/h 11.1 km/h 55 % 0 mm
15:40 -3.6 °C -11.3 °C 1026.3 hPa SSW 8.2 km/h 12.9 km/h 55 % 0 mm
15:45 -3.7 °C -11.4 °C 1026.3 hPa SW 8.2 km/h 16.7 km/h 55 % 0 mm
15:46 -3.7 °C -11.4 °C 1026.3 hPa West 7.6 km/h 18.5 km/h 55 % 0 mm
15:52 -3.7 °C -11.4 °C 1026.3 hPa SW 8.4 km/h 13 km/h 55 % 0 mm
15:56 -3.7 °C -11.2 °C 1026.3 hPa SW 6.3 km/h 11.1 km/h 56 % 0 mm
16:01 -3.8 °C -11.5 °C 1026 hPa WSW 6.1 km/h 9.7 km/h 55 % 0 mm
16:03 -3.8 °C -11.5 °C 1026.3 hPa SW 7.4 km/h 12.9 km/h 55 % 0 mm
16:07 -3.8 °C -11.6 °C 1026.3 hPa WSW 11.7 km/h 18.5 km/h 55 % 0 mm
16:12 -3.8 °C -11.6 °C 1026.3 hPa SW 7.6 km/h 11.1 km/h 55 % 0 mm
16:17 -3.9 °C -11.6 °C 1026.3 hPa SSW 3.7 km/h 9.3 km/h 55 % 0 mm
16:22 -3.9 °C -11.7 °C 1026 hPa SW 6.4 km/h 11.1 km/h 55 % 0 mm
16:23 -3.9 °C -11.4 °C 1026 hPa SW 6.1 km/h 11.1 km/h 56 % 0 mm
16:28 -4 °C -11.5 °C 1026 hPa WSW 1.9 km/h 7.4 km/h 56 % 0 mm
16:30 -4 °C -11.5 °C 1026 hPa SW 4.5 km/h 5.6 km/h 56 % 0 mm
16:34 -4.1 °C -11.6 °C 1026 hPa SW 2.1 km/h 5.6 km/h 56 % 0 mm
16:37 -4.1 °C -11.6 °C 1026 hPa SW 3.4 km/h 9.3 km/h 56 % 0 mm
16:42 -4.2 °C -11.7 °C 1026 hPa WSW 4.5 km/h 11.1 km/h 56 % 0 mm
16:46 -4.2 °C -11.7 °C 1026 hPa SW 0.3 km/h 5.6 km/h 56 % 0 mm
16:51 -4.3 °C -11.6 °C 1026 hPa SSW 4 km/h 7.4 km/h 57 % 0 mm
16:56 -4.3 °C -11.6 °C 1026 hPa SW 0.2 km/h 1.9 km/h 57 % 0 mm
16:58 -4.4 °C -11.7 °C 1025.6 hPa SSW 4.3 km/h 9.7 km/h 57 % 0 mm
17:01 -4.4 °C -11.7 °C 1025.6 hPa WSW 6.3 km/h 8 km/h 57 % 0 mm
17:05 -4.5 °C -11.7 °C 1026 hPa SW 3.5 km/h 9.3 km/h 57 % 0 mm
17:08 -4.6 °C -11.6 °C 1026 hPa SSW 6.8 km/h 14.8 km/h 58 % 0 mm
17:11 -4.6 °C -11.6 °C 1026 hPa SW 4.8 km/h 14.5 km/h 58 % 0 mm
17:16 -4.6 °C -11.6 °C 1026 hPa West 1.4 km/h 7.4 km/h 58 % 0 mm
17:21 -4.7 °C -11.7 °C 1026 hPa SSW 3.1 km/h 5.6 km/h 58 % 0 mm
17:24 -4.7 °C -11.7 °C 1026 hPa SW 0.3 km/h 7.4 km/h 58 % 0 mm
17:29 -4.7 °C -11.5 °C 1026 hPa SW 4 km/h 7.4 km/h 59 % 0 mm
17:33 -4.7 °C -11.5 °C 1026 hPa South 3.9 km/h 7.4 km/h 59 % 0 mm
17:38 -4.8 °C -11.6 °C 1026 hPa SSW 3.5 km/h 5.6 km/h 59 % 0 mm
17:40 -4.8 °C -11.6 °C 1026 hPa SSW 1.9 km/h 5.6 km/h 59 % 0 mm
17:45 -4.9 °C -11.7 °C 1026 hPa SW 1.6 km/h 5.6 km/h 59 % 0 mm
17:49 -4.9 °C -11.7 °C 1026 hPa SSW 0.6 km/h 3.7 km/h 59 % 0 mm
17:50 -4.9 °C -11.5 °C 1026 hPa Calm   1.9 km/h 60 % 0 mm
17:54 -5 °C -11.6 °C 1026 hPa Calm   5.6 km/h 60 % 0 mm
17:57 -5.1 °C -11.6 °C 1026 hPa Calm   3.7 km/h 60 % 0 mm
18:01 -5.1 °C -11.7 °C 1026 hPa Calm     60 % 0 mm
18:06 -5.2 °C -11.5 °C 1026 hPa SSW 7.7 km/h 14.8 km/h 61 % 0 mm
18:07 -5.2 °C -11.5 °C 1026 hPa SSW 3.2 km/h 11.1 km/h 61 % 0 mm
18:12 -5.3 °C -11.6 °C 1026 hPa SW 2.1 km/h 5.6 km/h 61 % 0 mm
18:16 -5.3 °C -11.7 °C 1026 hPa WSW 1.6 km/h 6.4 km/h 61 % 0 mm
18:21 -5.3 °C -11.5 °C 1026 hPa WSW 2.4 km/h 11.1 km/h 62 % 0 mm
18:22 -5.3 °C -11.5 °C 1026 hPa SSW 3.5 km/h 11.1 km/h 62 % 0 mm
18:23 -5.3 °C -11.5 °C 1026 hPa WSW 6.1 km/h 11.1 km/h 62 % 0 mm
18:28 -5.3 °C -11.5 °C 1026 hPa SW 3.5 km/h 11.1 km/h 62 % 0 mm
18:30 -5.3 °C -11.5 °C 1026 hPa SSW 7.7 km/h 11.1 km/h 62 % 0 mm
18:31 -5.4 °C -11.6 °C 1026 hPa SSW 7.2 km/h 18.5 km/h 62 % 0 mm
18:36 -5.3 °C -11.3 °C 1026 hPa SW 8 km/h 16.1 km/h 63 % 0 mm
18:41 -5.3 °C -11.5 °C 1026 hPa SW 6.1 km/h 11.3 km/h 62 % 0 mm
18:46 -5.3 °C -11.4 °C 1026 hPa SW 9.8 km/h 18.5 km/h 62 % 0 mm
18:48 -5.3 °C -11.4 °C 1026 hPa SW 5.3 km/h 16.7 km/h 62 % 0 mm
18:50 -5.3 °C -11.2 °C 1026 hPa South 1.9 km/h 6.4 km/h 63 % 0 mm
18:55 -5.3 °C -11.4 °C 1026 hPa SW 8 km/h 16.7 km/h 62 % 0 mm
19:00 -5.3 °C -11.2 °C 1026 hPa WSW 7.6 km/h 11.3 km/h 63 % 0 mm
19:05 -5.2 °C -11.4 °C 1026 hPa WSW 4.3 km/h 12.9 km/h 62 % 0 mm
19:06 -5.3 °C -11.4 °C 1026 hPa SSW 5.8 km/h 16.1 km/h 62 % 0 mm
19:11 -5.3 °C -11.4 °C 1026 hPa WSW 5.3 km/h 7.4 km/h 62 % 0 mm
19:17 -5.3 °C -11.4 °C 1026 hPa SSW 8.9 km/h 14.5 km/h 62 % 0 mm
19:20 -5.3 °C -11.4 °C 1026 hPa South 5 km/h 16.7 km/h 62 % 0 mm
19:21 -5.3 °C -11.4 °C 1026 hPa West 2.3 km/h 7.4 km/h 62 % 0 mm
19:27 -5.3 °C -11.4 °C 1026 hPa SW 7.4 km/h 9.3 km/h 62 % 0 mm
19:29 -5.3 °C -11.5 °C 1026 hPa SW 7.4 km/h 13 km/h 62 % 0 mm
19:30 -5.3 °C -11.5 °C 1026 hPa SW 8.7 km/h 14.8 km/h 62 % 0 mm
19:34 -5.3 °C -11.5 °C 1026 hPa WSW 7.1 km/h 20.4 km/h 62 % 0 mm
19:39 -5.3 °C -11.5 °C 1026 hPa SW 5.8 km/h 12.9 km/h 62 % 0 mm
19:44 -5.3 °C -11.3 °C 1026 hPa SW 6.1 km/h 9.3 km/h 63 % 0 mm
19:46 -5.4 °C -11.3 °C 1026 hPa SW 6 km/h 11.1 km/h 63 % 0 mm
19:51 -5.4 °C -11.3 °C 1026 hPa SSW 2.4 km/h 7.4 km/h 63 % 0 mm
19:53 -5.4 °C -11.4 °C 1026 hPa WSW 3.7 km/h 5.6 km/h 63 % 0 mm
19:57 -5.4 °C -11.6 °C 1026 hPa SW 5 km/h 9.3 km/h 62 % 0 mm
20:01 -5.5 °C -11.6 °C 1026 hPa SSW 0.8 km/h 5.6 km/h 62 % 0 mm
20:06 -5.6 °C -11.7 °C 1026 hPa SW 4.5 km/h 7.4 km/h 62 % 0 mm
20:09 -5.6 °C -11.7 °C 1026 hPa SW 1.9 km/h 5.6 km/h 62 % 0 mm
20:14 -5.6 °C -11.6 °C 1026 hPa SSW 2.4 km/h 6.4 km/h 63 % 0 mm
20:15 -5.6 °C -11.6 °C 1026 hPa South 3.5 km/h 5.6 km/h 63 % 0 mm
20:20 -5.7 °C -11.6 °C 1026 hPa SW 4.5 km/h 9.3 km/h 63 % 0 mm
20:28 -5.8 °C -11.8 °C 1026 hPa SW 4.7 km/h 11.1 km/h 63 % 0 mm
20:34 -5.9 °C -11.6 °C 1026.3 hPa WSW 9.2 km/h 16.1 km/h 64 % 0 mm
20:35 -5.9 °C -11.6 °C 1026 hPa SW 10 km/h 14.8 km/h 64 % 0 mm
20:40 -5.9 °C -11.7 °C 1026.3 hPa SSW 9.3 km/h 12.9 km/h 64 % 0 mm
20:45 -5.9 °C -11.7 °C 1026.3 hPa SW 9.7 km/h 14.5 km/h 64 % 0 mm
20:50 -5.9 °C -11.8 °C 1026.3 hPa WSW 8.7 km/h 11.3 km/h 63 % 0 mm
20:51 -5.9 °C -11.8 °C 1026 hPa WSW 9.5 km/h 14.8 km/h 63 % 0 mm
20:52 -5.9 °C -11.8 °C 1026.3 hPa WSW 7.6 km/h 14.5 km/h 63 % 0 mm
20:57 -5.9 °C -11.8 °C 1026.3 hPa WSW 11.1 km/h 25.9 km/h 63 % 0 mm
21:02 -5.9 °C -11.8 °C 1026.3 hPa SW 7.1 km/h 18.5 km/h 63 % 0 mm
21:03 -5.9 °C -12.1 °C 1026.3 hPa SSW 9.8 km/h 13 km/h 62 % 0 mm
21:08 -5.9 °C -12.1 °C 1026.3 hPa South 7.4 km/h 13 km/h 62 % 0 mm
21:10 -5.9 °C -12.1 °C 1026.3 hPa SW 10.3 km/h 13 km/h 62 % 0 mm
21:16 -5.9 °C -11.8 °C 1026.3 hPa WSW 9.7 km/h 19.3 km/h 63 % 0 mm
21:17 -5.9 °C -11.8 °C 1026.3 hPa SSW 7.7 km/h 18.5 km/h 63 % 0 mm
21:19 -5.9 °C -11.8 °C 1026.3 hPa WSW 8.9 km/h 19.3 km/h 63 % 0 mm
21:23 -6 °C -11.9 °C 1026.3 hPa SW 3.5 km/h 11.1 km/h 63 % 0 mm
21:24 -6 °C -11.9 °C 1026.3 hPa SW 4.5 km/h 6.4 km/h 63 % 0 mm
21:29 -6.1 °C -11.9 °C 1026.6 hPa SSW 8.4 km/h 14.8 km/h 63 % 0 mm
21:31 -6.1 °C -11.9 °C 1026.6 hPa WSW 6.6 km/h 11.1 km/h 63 % 0 mm
21:32 -6.1 °C -11.9 °C 1026.6 hPa SSW 5.8 km/h 11.1 km/h 63 % 0 mm
21:37 -6.1 °C -12 °C 1026.6 hPa SSW 3.2 km/h 5.6 km/h 63 % 0 mm
21:41 -6.2 °C -12.1 °C 1026.6 hPa SSW 4.8 km/h 11.1 km/h 63 % 0 mm
21:43 -6.2 °C -12.1 °C 1026.6 hPa WSW 5.5 km/h 9.7 km/h 63 % 0 mm
21:48 -6.3 °C -12.2 °C 1026.6 hPa SW 6.6 km/h 11.1 km/h 63 % 0 mm
21:49 -6.3 °C -12.2 °C 1026.6 hPa SSW 7.1 km/h 11.3 km/h 63 % 0 mm
21:54 -6.3 °C -12.4 °C 1026.6 hPa SSE 3.4 km/h 14.8 km/h 62 % 0 mm
21:55 -6.3 °C -12.4 °C 1026.6 hPa WSW 4.8 km/h 14.8 km/h 62 % 0 mm
22:00 -6.3 °C -12.4 °C 1026.6 hPa SW 8.5 km/h 14.8 km/h 62 % 0 mm
22:03 -6.3 °C -12.4 °C 1026.6 hPa SSW 2.1 km/h 5.6 km/h 62 % 0 mm
22:06 -6.3 °C -12.4 °C 1026.6 hPa SW 5.8 km/h 6.4 km/h 62 % 0 mm
22:12 -6.3 °C -12.4 °C 1026.6 hPa WSW 2.9 km/h 9.3 km/h 62 % 0 mm
22:15 -6.3 °C -12.4 °C 1026.6 hPa SSW 3.9 km/h 7.4 km/h 62 % 0 mm
22:20 -6.4 °C -12.3 °C 1026.6 hPa SW 1.8 km/h 3.7 km/h 63 % 0 mm
22:25 -6.5 °C -12.4 °C 1026.6 hPa SW 5.5 km/h 9.3 km/h 63 % 0 mm
22:30 -6.6 °C -12.5 °C 1026.6 hPa SSW 6.9 km/h 11.1 km/h 63 % 0 mm
22:31 -6.6 °C -12.5 °C 1026.6 hPa SSW 6.4 km/h 11.1 km/h 63 % 0 mm
22:36 -6.7 °C -12.6 °C 1026.6 hPa SSW 8 km/h 11.3 km/h 63 % 0 mm
22:40 -6.8 °C -12.7 °C 1026.6 hPa SSW 4.8 km/h 11.3 km/h 63 % 0 mm
22:44 -6.8 °C -12.7 °C 1026.6 hPa SSW 6.4 km/h 7.4 km/h 63 % 0 mm
22:49 -6.9 °C -12.6 °C 1026.6 hPa SSW 5.6 km/h 8 km/h 64 % 0 mm
22:51 -6.9 °C -12.6 °C 1026.6 hPa SW 5.3 km/h 9.3 km/h 64 % 0 mm
22:56 -6.9 °C -12.6 °C 1026.6 hPa SW 6.9 km/h 16.7 km/h 64 % 0 mm
22:57 -7 °C -12.7 °C 1027 hPa WSW 7.2 km/h 18.5 km/h 64 % 0 mm
22:58 -7 °C -12.7 °C 1026.6 hPa WSW 3.7 km/h 9.3 km/h 64 % 0 mm
23:00 -7 °C -12.7 °C 1026.6 hPa SW 2.3 km/h 6.4 km/h 64 % 0 mm
23:05 -7.1 °C -12.7 °C 1027 hPa SSW 10.6 km/h 18.5 km/h 64 % 0 mm
23:11 -7.1 °C -12.8 °C 1026.6 hPa SSW 4.8 km/h 11.3 km/h 64 % 0 mm
23:15 -7.1 °C -12.8 °C 1027 hPa SW 4.7 km/h 11.1 km/h 64 % 0 mm
23:20 -7.1 °C -12.9 °C 1027 hPa WSW 4.3 km/h 7.4 km/h 63 % 0 mm
23:25 -7.1 °C -12.9 °C 1027 hPa SW 6.8 km/h 11.3 km/h 63 % 0 mm
23:30 -7.1 °C -12.9 °C 1027 hPa SSW 7.9 km/h 11.3 km/h 63 % 0 mm
23:31 -7.1 °C -12.9 °C 1027 hPa SSW 8.4 km/h 11.1 km/h 63 % 0 mm
23:36 -7.1 °C -12.9 °C 1027 hPa SW 7.4 km/h 11.1 km/h 63 % 0 mm
23:39 -7.1 °C -12.9 °C 1027 hPa SW 5.1 km/h 7.4 km/h 63 % 0 mm
23:41 -7.1 °C -12.9 °C 1027 hPa SW 5.8 km/h 11.3 km/h 63 % 0 mm
23:45 -7.1 °C -12.9 °C 1027 hPa SSW 8.7 km/h 13 km/h 63 % 0 mm
23:50 -7.1 °C -13.1 °C 1026.6 hPa SW 7.2 km/h 11.1 km/h 62 % 0 mm
23:54 -7 °C -13.1 °C 1026.6 hPa WSW 7.6 km/h 18.5 km/h 62 % 0 mm
23:57 -7 °C -13.1 °C 1026.6 hPa West 8.2 km/h 13 km/h 62 % 0 mm
Crab Meadow Weather
Compliments of Weather Underground - 3.75 mb

Script developed by  Jim McMurry - jmcmurry@mwt.net Adapted for the template by  Wim van der Kuil - Leuven-Template.eu

Weather Terms: Wind Chill Advisory - Dangerous wind chills of -20°F to -30°F.